Showing default

TELSTAR 12V, 41036

Orbit data source: Space-Track

TELSTAR 12V, 41036 is a payload satellite owned by Telesat/Skynet (CA) in GEO that was launched on Tue, 24 Nov 2015 UTC via an H-IIA 204 launch vehicle from the Tanegashima Space Center (TNSTA). Payload-class satellites include a variety of spacecraft equipped with specific instruments for various scientific and technological missions. These include communications satellites like Starlink; space stations such as the ISS; scientific satellites like the Hubble; Earth observation satellites from companies like Planet Labs, Umbra, and HawkEye 360; GPS; miniature CubeSats for education and research; and military/defense satellites.

Not visible in the next 10 days
Identifier
41036, 2015-068A
Orbit
GEO
Country
Flag of CACA
Related business
Manufacturer
Airbus/Toulouse
Mission
Operational Commercial Communications
Bus & Motor
EUROSTAR 3000, R-4D
Mass
4,900 kg wet, 2,170 kg dry
Launch date (UTC)
2015-11-24 (11 years ago)
Launch vehicle
H-IIA 204
Launch site
Tanegashima Space Center (TNSTA)
Object type
Payload
Rocket body
Debris
Shape & HBR
Box + 2 Pan, 19.5 m
Radar Cross Section
46.116 m², Large (>1 m²)

Expand to show TLE details & history
Last TLE update: 19 hours ago

TLE from 19 hours ago
0 TELSTAR 12V
1 41036U 15068A   26163.26185270 -.00000103  00000-0  00000-0 0  9998
2 41036   0.0164 318.6604 0002057 127.6809 253.5379  1.00271779 38573
Epoch: 2026-06-12T06:17Z
TLE epoch observation values (Epoch: 2026-06-12T06:17:04.073Z)
Latitude
0.01142°
Longitude
-15.01453°
Altitude
35,788.543 km
Speed
3.075 km/s
True Right ascension
22h 39m 23s
True Declination
0° 00' 41"
Sunlit
Object was in daylight at epoch
Visualization orbit readout
Latitude
Unknown
Longitude
Unknown
Altitude
Unknown
Speed
Unknown
Apparent Right ascension
Unknown
Apparent Declination
Unknown
Sunlit
N/A
Visualization observer readout
Local Sidereal Time
11:23:31
Azimuth
Unknown
Elevation
Unknown
Doppler factor
Unknown
Orbital elements
Apogee altitude
35,796.341 km
Perigee altitude
35,778.994 km
Semi-major axis
42,165.804 km
Eccentricity
0.00021
Inclination
0.0164°
RAAN
318.6604°
Arg. of periapsis
127.6809°
True anomaly
253.5153°
Mean anomaly
253.5379°
Eccentric anomaly
253.5266°
Mean motion
0.25067 °/min
Orbital period
1,436.15 mins
BSTAR
0
Loading maneuver chart data...
Computing Atmospheric mass density...
Loading historical data...
Loading historical data...
Loading historical data...
Loading historical data...
Loading historical data...
Loading historical data...
Loading historical data...
Other satellites on launch #68 in the year 2015 (2015-11-24 UTC)

Documentation

Showing up to 5 results
|